WetterOnline ( http://www.wetteronline.de )

Wetter aktuell Obing

Aktuelles Wetter: Chieming (553m)

6-stündlich | Neueste Meldungen
Ortszeit Temperatur Wetter
So, 24.02. 1:00 -4.3° C fast wolkenlos
Sa, 23.02. 19:00 -0.8° C wolkenlos
Sa, 23.02. 13:00 1.6° C wolkenlos
Sa, 23.02. 7:00 -3.9° C wolkenlos
Sa, 23.02. 1:00 1.5° C wolkenlos
Fr, 22.02. 19:00 4.5° C bedeckt
Fr, 22.02. 13:00 5.1° C Sprühregen
Fr, 22.02. 7:00 5.0° C Regen
Ortszeit Temperatur Wetter
So, 24.02. 2:00 -4.5° C wolkig
So, 24.02. 1:40 -3.9° C leicht bewölkt
So, 24.02. 1:30 -4.5° C wolkig
So, 24.02. 1:20 -4.5° C wolkig
So, 24.02. 1:10 -4.1° C leicht bewölkt
So, 24.02. 1:00 -4.3° C fast wolkenlos
So, 24.02. 0:40 -4.2° C fast wolkenlos
So, 24.02. 0:30 -3.8° C wolkenlos
So, 24.02. 0:00 -3.7° C wolkenlos
Sa, 23.02. 23:30 -3.2° C wolkenlos
Sa, 23.02. 23:00 -3.1° C wolkenlos
Ortszeit Relative Feuchte Sichtweite
So, 24.02. 1:00 65% 29 km
Sa, 23.02. 19:00 51% 40 km
Sa, 23.02. 13:00 50% 11 km
Sa, 23.02. 7:00 74% 30 km
Sa, 23.02. 1:00 87% 15 km
Fr, 22.02. 19:00 99% 7 km
Fr, 22.02. 13:00 98% 1.5 km
Fr, 22.02. 7:00 95% 4.7 km
Ortszeit Relative Feuchte Sichtweite
So, 24.02. 2:00 66% 23 km
So, 24.02. 1:40 68% -
So, 24.02. 1:30 71% 40 km
So, 24.02. 1:20 71% -
So, 24.02. 1:10 66% -
So, 24.02. 1:00 65% 29 km
So, 24.02. 0:40 67% -
So, 24.02. 0:30 61% 30 km
So, 24.02. 0:00 61% 30 km
Sa, 23.02. 23:30 58% 30 km
Sa, 23.02. 23:00 59% 35 km
Ortszeit Niederschlagsmenge Niederschlagsart
So, 24.02. 1:00 0.0 l/m2 in 6 Std. -
Sa, 23.02. 19:00 0.0 l/m2 in 12 Std. -
Sa, 23.02. 13:00 0.0 l/m2 in 6 Std. -
Sa, 23.02. 7:00 0.1 l/m2 in 12 Std. -
Sa, 23.02. 1:00 0.1 l/m2 in 6 Std. Regen
Fr, 22.02. 19:00 2 l/m2 in 12 Std. Regen
Fr, 22.02. 13:00 0.9 l/m2 in 6 Std. Regen
Fr, 22.02. 7:00 2 l/m2 in 12 Std. Regen
Ortszeit Niederschlagsmenge Niederschlagsart
So, 24.02. 2:00 0.0 l/m2 in 1 Std. -
So, 24.02. 1:40 keine Meldung -
So, 24.02. 1:30 0.0 l/m2 in 1 Std. -
So, 24.02. 1:20 keine Meldung -
So, 24.02. 1:10 keine Meldung -
So, 24.02. 1:00 0.0 l/m2 in 1 Std. -
So, 24.02. 0:40 keine Meldung -
So, 24.02. 0:30 0.0 l/m2 in 1 Std. -
So, 24.02. 0:00 0.0 l/m2 in 1 Std. -
Sa, 23.02. 23:30 0.0 l/m2 in 1 Std. -
Sa, 23.02. 23:00 0.0 l/m2 in 1 Std. -
Ortszeit Stärke Spitze Richtung
km/h Bft. km/h Grad Sektor
So, 24.02. 1:00 11 2 22 60° NO
Sa, 23.02. 19:00 19 3 31 70° O
Sa, 23.02. 13:00 22 4 37 60° NO
Sa, 23.02. 7:00 14 3 32 70° O
Sa, 23.02. 1:00 17 3 24 60° NO
Fr, 22.02. 19:00 4 1 25 160° S
Fr, 22.02. 13:00 9 2 33 260° W
Fr, 22.02. 7:00 22 4 36 270° W
Ortszeit Stärke Spitze Richtung
km/h Bft. km/h Grad Sektor
So, 24.02. 2:00 6 1 11 100° O
So, 24.02. 1:40 6 1 - 40° NO
So, 24.02. 1:30 7 2 11 60° NO
So, 24.02. 1:20 7 2 - 60° NO
So, 24.02. 1:10 9 2 - 90° O
So, 24.02. 1:00 11 2 14 60° NO
So, 24.02. 0:40 7 2 - 40° NO
So, 24.02. 0:30 11 2 11 70° O
So, 24.02. 0:00 7 2 18 80° O
Sa, 23.02. 23:30 14 3 18 60° NO
Sa, 23.02. 23:00 14 3 18 80° O
Ortszeit Untergrenze Bedeckung Gattung
total tief tief mittel hoch
So, 24.02. 1:00 10500 m 2/8 0/8 - - -
Sa, 23.02. 19:00 - 0/8 0/8 - - -
Sa, 23.02. 13:00 - 0/8 0/8 - - -
Sa, 23.02. 7:00 - 0/8 0/8 - - -
Sa, 23.02. 1:00 - 0/8 0/8 - - -
Fr, 22.02. 19:00 750 m 8/8 8/8 - - -
Fr, 22.02. 13:00 240 m 7/8 7/8 - - -
Fr, 22.02. 7:00 180 m 8/8 7/8 - - -
Ortszeit Bedeckungsgrad in Achtel und Wolkenuntergrenze
So, 24.02. 2:00 5(9000m) 7(9000m) 7(10500m)
So, 24.02. 1:40 2(9000m) 4(9000m) 6(10500m)
So, 24.02. 1:30 1(9000m) 7(10500m)
So, 24.02. 1:20 1(9000m) 7(10500m)
So, 24.02. 1:10 5(10500m)
So, 24.02. 1:00 1(10500m)
So, 24.02. 0:40 1(10500m)
So, 24.02. 0:30 3(10500m)
So, 24.02. 0:00 keine Wolken
Sa, 23.02. 23:30 keine Wolken
Sa, 23.02. 23:00 keine Wolken
Ortszeit Luftdruck NN (hPa) Tendenz (hPa in 3 Std.)
So, 24.02. 1:00 1041 - 0,4
Sa, 23.02. 19:00 1041 + 0,8
Sa, 23.02. 13:00 1041 0,0
Sa, 23.02. 7:00 1042 + 0,2
Sa, 23.02. 1:00 1040 + 0,8
Fr, 22.02. 19:00 1037 + 1,6
Fr, 22.02. 13:00 1034 + 1,3
Fr, 22.02. 7:00 1030 + 0,4
Ortszeit Luftdruck NN (hPa) Tendenz (hPa in 3 Std.)
So, 24.02. 2:00 1041 - 0,7
So, 24.02. 1:40 1041 keine Meldung
So, 24.02. 1:30 1041 - 0,6
So, 24.02. 1:20 1041 keine Meldung
So, 24.02. 1:10 1041 keine Meldung
So, 24.02. 1:00 1041 - 0,4
So, 24.02. 0:40 1041 keine Meldung
So, 24.02. 0:30 1041 - 0,6
So, 24.02. 0:00 1041 - 0,5
Sa, 23.02. 23:30 1042 + 0,1
Sa, 23.02. 23:00 1042 + 0,1
Ortszeit Schneehöhe (cm)
So, 24.02. 1:00 0
Sa, 23.02. 19:00 0
Sa, 23.02. 13:00 0
Sa, 23.02. 7:00 0
Sa, 23.02. 1:00 0
Fr, 22.02. 19:00 0
Fr, 22.02. 13:00 0
Fr, 22.02. 7:00 0
Ortszeit Schneehöhe (cm)
So, 24.02. 2:00 0
So, 24.02. 1:40 0
So, 24.02. 1:30 0
So, 24.02. 1:20 0
So, 24.02. 1:10 0
So, 24.02. 1:00 0
So, 24.02. 0:40 0
So, 24.02. 0:30 0
So, 24.02. 0:00 0
Sa, 23.02. 23:30 0
Sa, 23.02. 23:00 0
Link zu dieser Seite / Seite empfehlen

Das Wetter in ...